FDX1024 RPLL-RKSI

Flight info

Callsign FDX1024
Flight time 3h 31m
Altitude 34000
Route CAB2R CAB B462 LAO/N0490F330 M646 POTIB Q14 TNN W4 ANLOT B1 APU DCT DRAKE Q11 WP900/N0482F350 L4 LIPLO Y741 ATOTI Y722 OLMEN OLMEN2C
Aircraft MD11/H-SDE1E2E3FGHIJ2J3J4J5M1RWXY/LB1D1

Departure

Time 2026-05-06 04:05
Airport Ninoy Aquino International Airport (RPLL)

Arrival

Time 2026-05-06 07:37
Airport Incheon International Airport (RKSI)
Time Latitude Longitude Altitude Speed Heading
2026-05-06 03:37 14.50630 121.00975 85 ft 0 kts 330°
2026-05-06 03:54 14.50630 121.00976 86 ft 0 kts 330°
2026-05-06 03:55 14.50622 121.00980 85 ft 2 kts 327°
2026-05-06 03:55 14.50612 121.00989 86 ft 2 kts 310°
2026-05-06 03:56 14.50604 121.01001 86 ft 2 kts 295°
2026-05-06 03:56 14.50599 121.01016 86 ft 2 kts 279°
2026-05-06 03:56 14.50598 121.01032 85 ft 2 kts 264°
2026-05-06 03:56 14.50601 121.01047 85 ft 2 kts 248°
2026-05-06 03:57 14.50605 121.01055 86 ft 1 kts 239°
2026-05-06 03:57 14.50606 121.01057 86 ft 0 kts 239°
2026-05-06 03:59 14.50605 121.01054 85 ft 1 kts 239°
2026-05-06 03:59 14.50598 121.01043 85 ft 2 kts 239°
2026-05-06 03:59 14.50585 121.01020 85 ft 4 kts 239°
2026-05-06 04:00 14.50564 121.00983 86 ft 7 kts 240°
2026-05-06 04:00 14.50535 121.00932 85 ft 9 kts 240°
2026-05-06 04:00 14.50499 121.00866 86 ft 11 kts 241°
2026-05-06 04:00 14.50438 121.00816 85 ft 11 kts 201°
2026-05-06 04:01 14.50370 121.00775 85 ft 10 kts 229°
2026-05-06 04:01 14.50328 121.00708 85 ft 11 kts 240°
2026-05-06 04:01 14.50285 121.00626 85 ft 14 kts 240°
2026-05-06 04:01 14.50231 121.00530 85 ft 16 kts 240°
2026-05-06 04:02 14.50169 121.00418 85 ft 19 kts 240°
2026-05-06 04:02 14.50097 121.00288 85 ft 22 kts 239°
2026-05-06 04:02 14.50036 121.00180 85 ft 13 kts 240°
2026-05-06 04:02 14.49987 121.00092 85 ft 15 kts 240°
2026-05-06 04:03 14.49933 120.99994 86 ft 11 kts 237°
2026-05-06 04:03 14.49875 120.99971 86 ft 9 kts 169°
2026-05-06 04:03 14.49817 120.99998 86 ft 6 kts 137°
2026-05-06 04:03 14.49805 121.00037 86 ft 5 kts 94°
2026-05-06 04:04 14.49811 121.00062 86 ft 0 kts 56°
2026-05-06 04:04 14.49814 121.00066 86 ft 1 kts 59°
2026-05-06 04:04 14.49823 121.00083 86 ft 8 kts 59°
2026-05-06 04:04 14.49983 121.00373 86 ft 86 kts 60°
2026-05-06 04:05 14.50404 121.01138 86 ft 157 kts 61°
2026-05-06 04:05 14.51056 121.02314 164 ft 209 kts 61°
2026-05-06 04:05 14.51804 121.03599 894 ft 211 kts 61°
2026-05-06 04:05 14.52530 121.04888 1760 ft 210 kts 63°
2026-05-06 04:06 14.53214 121.06173 2592 ft 198 kts 62°
2026-05-06 04:06 14.53875 121.07379 3211 ft 198 kts 61°
2026-05-06 04:06 14.54608 121.08693 3362 ft 224 kts 61°
2026-05-06 04:06 14.55439 121.10187 3416 ft 258 kts 61°
2026-05-06 04:07 14.56422 121.11825 4000 ft 268 kts 51°
2026-05-06 04:07 14.57813 121.13088 4760 ft 276 kts 29°
2026-05-06 04:07 14.59675 121.13632 5590 ft 279 kts
2026-05-06 04:07 14.61642 121.13669 6384 ft 287 kts
2026-05-06 04:08 14.63656 121.13605 7276 ft 288 kts 360°
2026-05-06 04:08 14.65673 121.13540 8161 ft 290 kts
2026-05-06 04:08 14.67711 121.13505 8940 ft 296 kts
2026-05-06 04:08 14.69765 121.13387 9825 ft 298 kts 354°
2026-05-06 04:09 14.71862 121.12940 10195 ft 322 kts 344°
2026-05-06 04:09 14.74090 121.12157 10409 ft 350 kts 341°
2026-05-06 04:09 14.76453 121.11258 10826 ft 369 kts 341°
2026-05-06 04:09 14.78947 121.10324 11199 ft 390 kts 341°
2026-05-06 04:10 14.81578 121.09372 11657 ft 405 kts 341°
2026-05-06 04:10 14.84308 121.08397 12384 ft 410 kts 342°
2026-05-06 04:10 14.87030 121.07437 13173 ft 414 kts 343°
2026-05-06 04:10 14.89805 121.06673 13993 ft 417 kts 349°
2026-05-06 04:11 14.92727 121.06259 14734 ft 422 kts 356°
2026-05-06 04:11 14.95695 121.06049 15415 ft 428 kts 357°
2026-05-06 04:11 14.98663 121.05878 16110 ft 433 kts 357°
2026-05-06 04:11 15.01738 121.05685 16816 ft 438 kts 357°
2026-05-06 04:12 15.04795 121.05473 17536 ft 443 kts 356°
2026-05-06 04:12 15.07916 121.05250 18277 ft 447 kts 356°
2026-05-06 04:12 15.11030 121.05027 18980 ft 452 kts 356°
2026-05-06 04:12 15.14117 121.04806 19645 ft 456 kts 356°
2026-05-06 04:13 15.17295 121.04579 20339 ft 460 kts 356°
2026-05-06 04:13 15.20553 121.04347 21004 ft 465 kts 356°
2026-05-06 04:13 15.23819 121.04118 21659 ft 470 kts 356°
2026-05-06 04:13 15.27109 121.03890 22396 ft 473 kts 356°
2026-05-06 04:14 15.30401 121.03663 23078 ft 477 kts 355°
2026-05-06 04:14 15.33752 121.03429 23740 ft 482 kts 355°
2026-05-06 04:14 15.37096 121.03196 24397 ft 486 kts 355°
2026-05-06 04:14 15.40519 121.02957 25005 ft 491 kts 355°
2026-05-06 04:15 15.43955 121.02708 25600 ft 496 kts 354°
2026-05-06 04:15 15.47400 121.02371 26215 ft 500 kts 353°
2026-05-06 04:15 15.50878 121.01904 26847 ft 503 kts 350°
2026-05-06 04:15 15.54374 121.01311 27490 ft 507 kts 349°
2026-05-06 04:16 15.57880 121.00664 28113 ft 511 kts 348°
2026-05-06 04:16 15.61428 121.00007 28762 ft 515 kts 349°
2026-05-06 04:16 15.64927 120.99377 29583 ft 514 kts 349°
2026-05-06 04:16 15.68454 120.98748 30513 ft 511 kts 348°
2026-05-06 04:17 15.71965 120.98118 31432 ft 507 kts 348°
2026-05-06 04:17 15.75446 120.97482 32303 ft 504 kts 348°
2026-05-06 04:17 15.78909 120.96844 33121 ft 501 kts 348°
2026-05-06 04:17 15.82393 120.96204 33564 ft 505 kts 348°
2026-05-06 04:18 15.89343 120.94945 33611 ft 492 kts 348°
2026-05-06 04:18 15.96198 120.93694 33664 ft 496 kts 348°
2026-05-06 04:19 16.03148 120.92424 33659 ft 497 kts 348°
2026-05-06 04:19 16.10066 120.91167 33677 ft 495 kts 348°
2026-05-06 04:20 16.16895 120.89920 33697 ft 494 kts 348°
2026-05-06 04:20 16.23775 120.88666 33705 ft 494 kts 348°
2026-05-06 04:21 16.30663 120.87414 33749 ft 495 kts 348°
2026-05-06 04:21 16.37545 120.86156 33741 ft 493 kts 348°
2026-05-06 04:22 16.44457 120.84883 33776 ft 494 kts 348°
2026-05-06 04:23 16.54751 120.82993 33778 ft 494 kts 348°
2026-05-06 04:23 16.61610 120.81731 33829 ft 494 kts 348°
2026-05-06 04:24 16.68471 120.80470 33830 ft 493 kts 348°
2026-05-06 04:24 16.75366 120.79202 33890 ft 494 kts 348°
2026-05-06 04:25 16.82205 120.77946 33866 ft 493 kts 348°
2026-05-06 04:25 16.89094 120.76679 33867 ft 493 kts 348°
2026-05-06 04:26 16.95955 120.75417 33802 ft 492 kts 348°
2026-05-06 04:26 17.02809 120.74158 33764 ft 493 kts 348°
2026-05-06 04:27 17.09686 120.72895 33769 ft 492 kts 348°
2026-05-06 04:27 17.16534 120.71636 33754 ft 492 kts 348°
2026-05-06 04:28 17.23350 120.70377 33757 ft 493 kts 348°
2026-05-06 04:28 17.30213 120.69105 33721 ft 492 kts 348°
2026-05-06 04:29 17.37079 120.67823 33723 ft 492 kts 348°
2026-05-06 04:29 17.43872 120.66582 33700 ft 491 kts 348°
2026-05-06 04:30 17.50731 120.65318 33699 ft 491 kts 348°
2026-05-06 04:30 17.57556 120.64055 33687 ft 491 kts 348°
2026-05-06 04:31 17.64387 120.62798 33689 ft 492 kts 348°
2026-05-06 04:31 17.71268 120.61531 33671 ft 491 kts 348°
2026-05-06 04:32 17.78053 120.60278 33673 ft 491 kts 348°
2026-05-06 04:32 17.84894 120.59019 33674 ft 490 kts 348°
2026-05-06 04:33 17.91713 120.57764 33655 ft 489 kts 348°
2026-05-06 04:33 17.98534 120.56503 33654 ft 490 kts 348°
2026-05-06 04:34 18.05412 120.55222 33651 ft 490 kts 347°
2026-05-06 04:34 18.12184 120.53945 33659 ft 490 kts 347°
2026-05-06 04:35 18.19113 120.53201 33653 ft 493 kts 357°
2026-05-06 04:35 18.26138 120.53584 33677 ft 496 kts
2026-05-06 04:36 18.33062 120.54166 33642 ft 493 kts
2026-05-06 04:36 18.40040 120.54711 33650 ft 494 kts
2026-05-06 04:37 18.46989 120.55250 33646 ft 494 kts
2026-05-06 04:37 18.53990 120.55796 33652 ft 494 kts
2026-05-06 04:38 18.60991 120.56358 33660 ft 495 kts
2026-05-06 04:38 18.67923 120.56916 33650 ft 493 kts
2026-05-06 04:39 18.74884 120.57450 33656 ft 493 kts
2026-05-06 04:39 18.81801 120.58007 33652 ft 493 kts
2026-05-06 04:40 18.88654 120.58574 33659 ft 494 kts
2026-05-06 04:40 18.95581 120.59128 33654 ft 493 kts
2026-05-06 04:41 19.02457 120.59686 33662 ft 493 kts
2026-05-06 04:41 19.09323 120.60247 33656 ft 492 kts
2026-05-06 04:42 19.16208 120.60802 33668 ft 491 kts
2026-05-06 04:42 19.23043 120.61356 33675 ft 493 kts
2026-05-06 04:43 19.29872 120.61912 33662 ft 492 kts
2026-05-06 04:43 19.36733 120.62467 33663 ft 491 kts
2026-05-06 04:44 19.43591 120.63019 33664 ft 491 kts
2026-05-06 04:44 19.50445 120.63541 33670 ft 490 kts
2026-05-06 04:45 19.57230 120.64105 33664 ft 490 kts
2026-05-06 04:45 19.64068 120.64670 33675 ft 490 kts
2026-05-06 04:46 19.70936 120.65218 33665 ft 490 kts
2026-05-06 04:46 19.77790 120.65786 33675 ft 490 kts
2026-05-06 04:47 19.84638 120.66352 33667 ft 488 kts
2026-05-06 04:47 19.91441 120.66897 33675 ft 488 kts
2026-05-06 04:48 19.98274 120.67458 33668 ft 488 kts
2026-05-06 04:48 20.05011 120.68012 33676 ft 488 kts
2026-05-06 04:49 20.09218 120.68353 33677 ft 488 kts
2026-05-06 04:49 20.16342 120.68932 33683 ft 487 kts
2026-05-06 04:50 20.23721 120.69540 33688 ft 486 kts
2026-05-06 04:50 20.30487 120.70093 33671 ft 484 kts
2026-05-06 04:51 20.37288 120.70660 33706 ft 487 kts
2026-05-06 04:51 20.44070 120.71214 33684 ft 485 kts
2026-05-06 04:52 20.50888 120.71775 33693 ft 484 kts
2026-05-06 04:52 20.57632 120.72335 33693 ft 483 kts
2026-05-06 04:53 20.64428 120.72894 33685 ft 483 kts
2026-05-06 04:53 20.71225 120.73453 33692 ft 483 kts
2026-05-06 04:54 20.78008 120.74015 33682 ft 481 kts
2026-05-06 04:54 20.84771 120.74571 33692 ft 481 kts 360°
2026-05-06 04:55 20.91486 120.75127 33683 ft 478 kts 360°
2026-05-06 04:55 20.98216 120.75485 33674 ft 476 kts 354°
2026-05-06 04:56 21.04843 120.74552 33705 ft 469 kts 343°
2026-05-06 04:56 21.10972 120.72992 33701 ft 469 kts 342°
2026-05-06 04:57 21.17379 120.71362 33695 ft 468 kts 343°
2026-05-06 04:57 21.23815 120.69736 33701 ft 468 kts 343°
2026-05-06 04:58 21.30232 120.68111 33695 ft 466 kts 343°
2026-05-06 04:58 21.36636 120.66477 33702 ft 468 kts 342°
2026-05-06 04:59 21.43026 120.64838 33697 ft 466 kts 342°
2026-05-06 04:59 21.49410 120.63207 33702 ft 468 kts 342°
2026-05-06 05:00 21.55780 120.61580 33697 ft 467 kts 342°
2026-05-06 05:00 21.62150 120.59910 33699 ft 466 kts 342°
2026-05-06 05:01 21.68481 120.58277 33706 ft 467 kts 343°
2026-05-06 05:01 21.74878 120.56657 33702 ft 467 kts 343°
2026-05-06 05:02 21.81234 120.55019 33703 ft 466 kts 342°
2026-05-06 05:02 21.87622 120.53328 33711 ft 466 kts 342°
2026-05-06 05:03 21.93982 120.51679 33722 ft 465 kts 342°
2026-05-06 05:03 22.00408 120.50025 33721 ft 466 kts 342°
2026-05-06 05:04 22.06777 120.48373 33728 ft 466 kts 342°
2026-05-06 05:04 22.13087 120.46744 33731 ft 465 kts 342°
2026-05-06 05:05 22.19441 120.45100 33738 ft 465 kts 342°
2026-05-06 05:05 22.25752 120.43469 33728 ft 466 kts 342°
2026-05-06 05:06 22.32152 120.41814 33729 ft 465 kts 342°
2026-05-06 05:06 22.38464 120.40183 33733 ft 466 kts 343°
2026-05-06 05:07 22.44833 120.38536 33736 ft 467 kts 343°
2026-05-06 05:07 22.51122 120.36910 33728 ft 465 kts 343°
2026-05-06 05:08 22.57508 120.35259 33734 ft 466 kts 343°
2026-05-06 05:08 22.63833 120.33620 33751 ft 465 kts 342°
2026-05-06 05:09 22.70171 120.31964 33746 ft 464 kts 342°
2026-05-06 05:09 22.76533 120.30309 33745 ft 465 kts 342°
2026-05-06 05:10 22.82874 120.28654 33746 ft 466 kts 342°
2026-05-06 05:10 22.89250 120.26947 33741 ft 464 kts 342°
2026-05-06 05:11 22.95630 120.25277 33747 ft 464 kts 342°
2026-05-06 05:11 23.01997 120.23622 33746 ft 463 kts 342°
2026-05-06 05:12 23.08407 120.21950 33738 ft 463 kts 344°
2026-05-06 05:12 23.14503 120.21511 33785 ft 475 kts
2026-05-06 05:13 23.21028 120.23168 33764 ft 485 kts 14°
2026-05-06 05:13 23.27410 120.25616 33740 ft 483 kts 14°
2026-05-06 05:14 23.33817 120.28009 33727 ft 482 kts 13°
2026-05-06 05:14 23.40268 120.30335 33747 ft 480 kts 13°
2026-05-06 05:15 23.46697 120.32664 33751 ft 482 kts 13°
2026-05-06 05:15 23.53190 120.35030 33752 ft 481 kts 13°
2026-05-06 05:16 23.59600 120.37362 33761 ft 480 kts 13°
2026-05-06 05:16 23.66089 120.39668 33753 ft 478 kts 13°
2026-05-06 05:17 23.72514 120.41994 33760 ft 479 kts 13°
2026-05-06 05:17 23.78924 120.44362 33764 ft 479 kts 13°
2026-05-06 05:18 23.85335 120.46709 33763 ft 478 kts 13°
2026-05-06 05:18 23.91528 120.49671 33758 ft 485 kts 25°
2026-05-06 05:19 23.97244 120.53960 33803 ft 492 kts 31°
2026-05-06 05:19 24.02810 120.58510 33756 ft 490 kts 31°
2026-05-06 05:20 24.08365 120.62990 33792 ft 489 kts 30°
2026-05-06 05:20 24.13897 120.67447 33793 ft 490 kts 31°
2026-05-06 05:21 24.19449 120.71955 33781 ft 488 kts 31°
2026-05-06 05:21 24.24977 120.76430 33823 ft 490 kts 31°
2026-05-06 05:22 24.30529 120.80925 33813 ft 488 kts 31°
2026-05-06 05:22 24.36082 120.85425 33857 ft 489 kts 31°
2026-05-06 05:23 24.41612 120.89902 33837 ft 486 kts 31°
2026-05-06 05:23 24.49920 120.96615 33876 ft 485 kts 30°
2026-05-06 05:24 24.55455 121.01047 33897 ft 487 kts 30°
2026-05-06 05:24 24.60966 121.05582 33865 ft 485 kts 31°
2026-05-06 05:25 24.66460 121.10119 33868 ft 485 kts 31°
2026-05-06 05:25 24.71921 121.14606 33818 ft 485 kts 30°
2026-05-06 05:26 24.77418 121.19125 33834 ft 485 kts 31°
2026-05-06 05:26 24.82925 121.23660 33805 ft 483 kts 31°
2026-05-06 05:27 24.88353 121.28118 33809 ft 483 kts 30°
2026-05-06 05:27 24.93801 121.32598 33798 ft 480 kts 30°
2026-05-06 05:28 24.99183 121.37022 33784 ft 479 kts 30°
2026-05-06 05:28 25.04628 121.41492 33801 ft 479 kts 30°
2026-05-06 05:29 25.09989 121.45901 33779 ft 479 kts 30°
2026-05-06 05:29 25.15375 121.50410 33784 ft 481 kts 33°
2026-05-06 05:30 25.20303 121.55585 33793 ft 487 kts 41°
2026-05-06 05:30 25.24861 121.61330 33825 ft 491 kts 42°
2026-05-06 05:31 25.29334 121.67006 33759 ft 487 kts 42°
2026-05-06 05:31 25.33899 121.72757 33795 ft 488 kts 42°
2026-05-06 05:32 25.38381 121.78439 33781 ft 486 kts 43°
2026-05-06 05:32 25.42889 121.84162 33789 ft 483 kts 42°
2026-05-06 05:33 25.47370 121.89824 33800 ft 485 kts 42°
2026-05-06 05:33 25.51858 121.95513 33800 ft 485 kts 42°
2026-05-06 05:34 25.56334 122.01183 33805 ft 483 kts 41°
2026-05-06 05:34 25.60945 122.06689 33796 ft 479 kts 36°
2026-05-06 05:35 25.66149 122.11325 33808 ft 467 kts 28°
2026-05-06 05:35 25.71549 122.15518 33826 ft 467 kts 28°
2026-05-06 05:36 25.76893 122.19700 33795 ft 465 kts 28°
2026-05-06 05:36 25.82278 122.23924 33832 ft 468 kts 28°
2026-05-06 05:37 25.87617 122.28120 33781 ft 462 kts 28°
2026-05-06 05:37 25.92954 122.32305 33833 ft 465 kts 28°
2026-05-06 05:38 25.98313 122.36503 33796 ft 463 kts 28°
2026-05-06 05:38 26.03662 122.40685 33821 ft 465 kts 28°
2026-05-06 05:39 26.08996 122.44852 33807 ft 465 kts 28°
2026-05-06 05:39 26.14312 122.48996 33838 ft 463 kts 28°
2026-05-06 05:40 26.19671 122.53136 33823 ft 461 kts 27°
2026-05-06 05:40 26.24992 122.57256 33840 ft 463 kts 28°
2026-05-06 05:41 26.30305 122.61491 33811 ft 462 kts 28°
2026-05-06 05:41 26.35577 122.65690 33822 ft 462 kts 29°
2026-05-06 05:42 26.40879 122.69898 33804 ft 464 kts 28°
2026-05-06 05:42 26.46163 122.74102 33823 ft 462 kts 29°
2026-05-06 05:43 26.51444 122.78304 33813 ft 461 kts 28°
2026-05-06 05:43 26.56749 122.82489 33831 ft 460 kts 28°
2026-05-06 05:44 26.62077 122.86620 33832 ft 461 kts 28°
2026-05-06 05:44 26.67353 122.90826 33829 ft 461 kts 29°
2026-05-06 05:45 26.72589 122.95035 33836 ft 460 kts 29°
2026-05-06 05:45 26.77860 122.99242 33825 ft 460 kts 29°
2026-05-06 05:46 26.83114 123.03413 33833 ft 459 kts 29°
2026-05-06 05:46 26.88358 123.07675 33831 ft 460 kts 30°
2026-05-06 05:47 26.93536 123.11979 33841 ft 462 kts 30°
2026-05-06 05:47 26.98762 123.16312 33822 ft 460 kts 30°
2026-05-06 05:48 27.03978 123.20624 33846 ft 461 kts 30°
2026-05-06 05:48 27.09182 123.24936 33846 ft 458 kts 30°
2026-05-06 05:49 27.14340 123.29206 33889 ft 461 kts 30°
2026-05-06 05:49 27.19552 123.33516 33869 ft 461 kts 30°
2026-05-06 05:50 27.24760 123.37827 33857 ft 459 kts 30°
2026-05-06 05:50 27.30010 123.42167 33862 ft 460 kts 30°
2026-05-06 05:51 27.35198 123.46459 33838 ft 460 kts 30°
2026-05-06 05:51 27.40463 123.50809 33853 ft 462 kts 30°
2026-05-06 05:52 27.45699 123.55135 33851 ft 461 kts 30°
2026-05-06 05:52 27.50894 123.59453 33850 ft 462 kts 31°
2026-05-06 05:53 27.56074 123.63821 33853 ft 462 kts 31°
2026-05-06 05:53 27.61292 123.68206 33843 ft 463 kts 31°
2026-05-06 05:54 27.66547 123.72613 33849 ft 462 kts 31°
2026-05-06 05:54 27.71735 123.76973 33841 ft 461 kts 31°
2026-05-06 05:55 27.76986 123.81370 33871 ft 464 kts 31°
2026-05-06 05:55 27.82197 123.85747 33853 ft 461 kts 31°
2026-05-06 05:56 27.87394 123.90102 33869 ft 460 kts 31°
2026-05-06 05:56 27.92591 123.94455 33874 ft 461 kts 31°
2026-05-06 05:57 27.97827 123.98848 33879 ft 463 kts 31°
2026-05-06 05:57 28.03037 124.03297 33876 ft 465 kts 32°
2026-05-06 05:58 28.08130 124.07876 33865 ft 464 kts 33°
2026-05-06 05:58 28.13224 124.12485 33896 ft 468 kts 33°
2026-05-06 05:59 28.18383 124.17138 33879 ft 467 kts 33°
2026-05-06 05:59 28.23481 124.21745 33877 ft 466 kts 33°
2026-05-06 06:00 28.28620 124.26382 33876 ft 468 kts 33°
2026-05-06 06:00 28.33757 124.31020 33863 ft 467 kts 33°
2026-05-06 06:01 28.38925 124.35684 33885 ft 469 kts 34°
2026-05-06 06:01 28.44073 124.40330 33856 ft 471 kts 34°
2026-05-06 06:02 28.49268 124.45016 33867 ft 470 kts 34°
2026-05-06 06:02 28.54408 124.49652 33866 ft 468 kts 34°
2026-05-06 06:03 28.59598 124.54320 33875 ft 473 kts 34°
2026-05-06 06:03 28.64768 124.58991 33869 ft 470 kts 34°
2026-05-06 06:04 28.69933 124.63673 33873 ft 470 kts 34°
2026-05-06 06:04 28.75120 124.68246 33842 ft 467 kts 30°
2026-05-06 06:05 28.80890 124.71657 33885 ft 464 kts 18°
2026-05-06 06:05 28.86991 124.74141 33859 ft 460 kts 17°
2026-05-06 06:06 28.93107 124.76591 33873 ft 460 kts 17°
2026-05-06 06:06 28.99215 124.79052 33856 ft 459 kts 17°
2026-05-06 06:07 29.05278 124.81499 33862 ft 458 kts 17°
2026-05-06 06:07 29.11384 124.83961 33874 ft 458 kts 17°
2026-05-06 06:08 29.17451 124.86404 33886 ft 458 kts 17°
2026-05-06 06:08 29.23554 124.88860 33905 ft 457 kts 17°
2026-05-06 06:09 29.29574 124.91273 33877 ft 453 kts 17°
2026-05-06 06:09 29.35619 124.93690 33902 ft 454 kts 17°
2026-05-06 06:10 29.41659 124.96114 33900 ft 455 kts 17°
2026-05-06 06:10 29.47642 124.98511 33893 ft 452 kts 17°
2026-05-06 06:11 29.53634 125.00906 33889 ft 451 kts 17°
2026-05-06 06:11 29.59630 125.03309 33924 ft 451 kts 18°
2026-05-06 06:12 29.65617 125.05726 33880 ft 448 kts 18°
2026-05-06 06:12 29.71563 125.08146 33926 ft 451 kts 18°
2026-05-06 06:13 29.77572 125.10581 33894 ft 450 kts 18°
2026-05-06 06:13 29.83513 125.12988 33915 ft 451 kts 18°
2026-05-06 06:14 29.89487 125.15412 33897 ft 452 kts 17°
2026-05-06 06:14 29.95488 125.17846 33917 ft 448 kts 17°
2026-05-06 06:15 30.01238 125.20182 33907 ft 448 kts 17°
2026-05-06 06:15 30.07191 125.22617 33924 ft 454 kts 17°
2026-05-06 06:16 30.13193 125.25105 33907 ft 452 kts 17°
2026-05-06 06:16 30.19203 125.27583 33914 ft 453 kts 17°
2026-05-06 06:17 30.25250 125.30066 33923 ft 456 kts 17°
2026-05-06 06:17 30.31248 125.32543 33907 ft 455 kts 17°
2026-05-06 06:18 30.37283 125.35030 33901 ft 454 kts 17°
2026-05-06 06:18 30.43288 125.37502 33916 ft 454 kts 17°
2026-05-06 06:19 30.45316 125.38337 33904 ft 454 kts 17°
2026-05-06 06:20 30.61050 125.44818 33903 ft 452 kts 17°
2026-05-06 06:20 30.67012 125.47272 33902 ft 451 kts 18°
2026-05-06 06:21 30.72968 125.49738 33893 ft 451 kts 17°
2026-05-06 06:21 30.78964 125.52193 33900 ft 449 kts 18°
2026-05-06 06:22 30.84870 125.54666 33912 ft 448 kts 18°
2026-05-06 06:22 30.90786 125.57159 33909 ft 448 kts 18°
2026-05-06 06:23 30.96685 125.59630 33910 ft 446 kts 18°
2026-05-06 06:23 31.02580 125.62099 33901 ft 444 kts 18°
2026-05-06 06:24 31.08465 125.64568 33920 ft 448 kts 18°
2026-05-06 06:24 31.14392 125.67055 33920 ft 445 kts 18°
2026-05-06 06:25 31.20270 125.69515 33923 ft 444 kts 18°
2026-05-06 06:26 31.29072 125.73209 33914 ft 445 kts 18°
2026-05-06 06:26 31.34971 125.75678 33920 ft 444 kts 18°
2026-05-06 06:27 31.40857 125.78142 33920 ft 445 kts 18°
2026-05-06 06:27 31.46730 125.80608 33911 ft 444 kts 18°
2026-05-06 06:28 31.52638 125.83084 33917 ft 445 kts 18°
2026-05-06 06:28 31.58507 125.85542 33909 ft 446 kts 18°
2026-05-06 06:29 31.64420 125.88020 33913 ft 444 kts 18°
2026-05-06 06:29 31.70283 125.90484 33900 ft 445 kts 18°
2026-05-06 06:30 31.76184 125.92989 33910 ft 446 kts 18°
2026-05-06 06:30 31.82064 125.95452 33896 ft 445 kts 18°
2026-05-06 06:31 31.87919 125.97929 33905 ft 444 kts 18°
2026-05-06 06:31 31.93785 126.00428 33908 ft 446 kts 17°
2026-05-06 06:32 31.99693 126.02924 33904 ft 448 kts 17°
2026-05-06 06:32 32.05610 126.05426 33903 ft 444 kts 17°
2026-05-06 06:33 32.11487 126.07897 33921 ft 444 kts 17°
2026-05-06 06:33 32.17385 126.10411 33933 ft 447 kts 18°
2026-05-06 06:34 32.23291 126.12946 33918 ft 446 kts 17°
2026-05-06 06:34 32.29201 126.15449 33934 ft 446 kts 17°
2026-05-06 06:35 32.35078 126.17954 33908 ft 444 kts 17°
2026-05-06 06:35 32.40935 126.20451 33932 ft 448 kts 17°
2026-05-06 06:36 32.46869 126.22974 33915 ft 447 kts 17°
2026-05-06 06:36 32.52798 126.25504 33918 ft 447 kts 17°
2026-05-06 06:37 32.58699 126.27998 33919 ft 447 kts 17°
2026-05-06 06:37 32.64597 126.30550 33917 ft 447 kts 17°
2026-05-06 06:38 32.70527 126.33124 33924 ft 447 kts 17°
2026-05-06 06:38 32.76427 126.35656 33924 ft 447 kts 17°
2026-05-06 06:39 32.82372 126.38225 33927 ft 450 kts 17°
2026-05-06 06:39 32.88288 126.40778 33916 ft 447 kts 17°
2026-05-06 06:40 32.94232 126.43340 33937 ft 450 kts 17°
2026-05-06 06:40 33.00214 126.45920 33919 ft 450 kts 17°
2026-05-06 06:41 33.06158 126.48441 33932 ft 450 kts 17°
2026-05-06 06:41 33.12109 126.51015 33936 ft 450 kts 17°
2026-05-06 06:42 33.17973 126.53562 33950 ft 449 kts 16°
2026-05-06 06:42 33.23938 126.56126 33942 ft 449 kts 16°
2026-05-06 06:43 33.29924 126.58710 33937 ft 449 kts 17°
2026-05-06 06:43 33.35897 126.61216 33927 ft 448 kts 14°
2026-05-06 06:44 33.41977 126.63097 33932 ft 447 kts
2026-05-06 06:44 33.48081 126.64465 33934 ft 443 kts
2026-05-06 06:45 33.54133 126.65820 33932 ft 445 kts
2026-05-06 06:45 33.60258 126.67181 33925 ft 445 kts
2026-05-06 06:46 33.66413 126.68547 33931 ft 445 kts
2026-05-06 06:46 33.72536 126.69890 33922 ft 444 kts
2026-05-06 06:47 33.78652 126.71234 33928 ft 443 kts
2026-05-06 06:47 33.84809 126.72536 33915 ft 444 kts
2026-05-06 06:48 33.91004 126.73476 33935 ft 443 kts
2026-05-06 06:48 33.97228 126.74199 33924 ft 443 kts
2026-05-06 06:49 34.03397 126.74850 33918 ft 439 kts
2026-05-06 06:49 34.09596 126.75501 33934 ft 440 kts
2026-05-06 06:50 34.15401 126.76115 33957 ft 443 kts
2026-05-06 06:50 34.21616 126.76763 33915 ft 442 kts
2026-05-06 06:51 34.27882 126.77411 33938 ft 443 kts
2026-05-06 06:51 34.34081 126.78029 33911 ft 443 kts
2026-05-06 06:52 34.40247 126.78654 33908 ft 440 kts
2026-05-06 06:52 34.46477 126.79308 33942 ft 444 kts
2026-05-06 06:53 34.52679 126.80001 33907 ft 443 kts
2026-05-06 06:53 34.58869 126.80664 33889 ft 445 kts
2026-05-06 06:53 34.61965 126.80998 33586 ft 444 kts
2026-05-06 06:54 34.65072 126.81342 33317 ft 440 kts
2026-05-06 06:54 34.68121 126.81673 33091 ft 442 kts
2026-05-06 06:54 34.71174 126.82004 32886 ft 446 kts
2026-05-06 06:54 34.73907 126.82300 32691 ft 449 kts
2026-05-06 06:55 34.77132 126.82649 32445 ft 450 kts
2026-05-06 06:55 34.80170 126.82983 32196 ft 450 kts
2026-05-06 06:55 34.83301 126.83324 31946 ft 451 kts
2026-05-06 06:55 34.86433 126.83662 31698 ft 454 kts
2026-05-06 06:56 34.89647 126.84011 31444 ft 456 kts
2026-05-06 06:56 34.92847 126.84359 31191 ft 456 kts
2026-05-06 06:56 34.96012 126.84703 30945 ft 458 kts
2026-05-06 06:56 34.99244 126.85053 30691 ft 461 kts
2026-05-06 06:57 35.02485 126.85408 30440 ft 462 kts
2026-05-06 06:57 35.05722 126.85759 30192 ft 464 kts
2026-05-06 06:57 35.08971 126.86110 29944 ft 465 kts
2026-05-06 06:57 35.11459 126.86382 29753 ft 466 kts
2026-05-06 06:58 35.13547 126.86607 29603 ft 467 kts
2026-05-06 06:58 35.15966 126.86856 29418 ft 468 kts
2026-05-06 06:58 35.19907 126.87262 29122 ft 470 kts
2026-05-06 06:58 35.24142 126.87726 28794 ft 470 kts
2026-05-06 06:59 35.27220 126.88075 28561 ft 471 kts
2026-05-06 06:59 35.30513 126.88443 28307 ft 474 kts
2026-05-06 06:59 35.33819 126.88804 28049 ft 476 kts
2026-05-06 06:59 35.37156 126.89166 27796 ft 476 kts
2026-05-06 07:00 35.40514 126.89531 27541 ft 478 kts
2026-05-06 07:00 35.43836 126.89898 27285 ft 479 kts
2026-05-06 07:00 35.47205 126.90270 27032 ft 480 kts
2026-05-06 07:00 35.50565 126.90642 26788 ft 481 kts
2026-05-06 07:01 35.53788 126.90981 26534 ft 482 kts
2026-05-06 07:01 35.57191 126.91331 26268 ft 485 kts
2026-05-06 07:01 35.60608 126.91698 25992 ft 484 kts
2026-05-06 07:01 35.63972 126.92078 25730 ft 481 kts
2026-05-06 07:02 35.67339 126.92464 25465 ft 479 kts
2026-05-06 07:02 35.70698 126.92839 25206 ft 477 kts
2026-05-06 07:02 35.74044 126.93201 24943 ft 477 kts
2026-05-06 07:02 35.77367 126.93563 24701 ft 476 kts
2026-05-06 07:03 35.80711 126.93933 24452 ft 476 kts
2026-05-06 07:03 35.84011 126.94303 24206 ft 475 kts
2026-05-06 07:03 35.87361 126.94678 23957 ft 473 kts
2026-05-06 07:03 35.90668 126.95042 23699 ft 471 kts
2026-05-06 07:04 35.93869 126.95377 23454 ft 470 kts
2026-05-06 07:04 35.97118 126.95719 23196 ft 468 kts
2026-05-06 07:04 36.00394 126.96082 22948 ft 469 kts
2026-05-06 07:04 36.03698 126.96460 22687 ft 468 kts
2026-05-06 07:05 36.06981 126.96836 22435 ft 467 kts
2026-05-06 07:05 36.10225 126.97198 22172 ft 465 kts
2026-05-06 07:05 36.13337 126.97538 21932 ft 464 kts
2026-05-06 07:05 36.16249 126.97859 21701 ft 462 kts
2026-05-06 07:06 36.19338 126.98202 21461 ft 461 kts
2026-05-06 07:06 36.22558 126.98563 21207 ft 460 kts
2026-05-06 07:06 36.25812 126.98930 20955 ft 459 kts
2026-05-06 07:06 36.28996 126.99284 20719 ft 458 kts
2026-05-06 07:07 36.32199 126.99641 20477 ft 458 kts
2026-05-06 07:07 36.35436 126.99972 20240 ft 456 kts
2026-05-06 07:07 36.38643 127.00173 20017 ft 455 kts 358°
2026-05-06 07:07 36.41805 127.00205 19756 ft 453 kts 356°
2026-05-06 07:08 36.44980 127.00113 19519 ft 450 kts 354°
2026-05-06 07:08 36.48171 126.99987 19286 ft 449 kts 354°
2026-05-06 07:08 36.51320 126.99876 19056 ft 449 kts 355°
2026-05-06 07:08 36.54497 126.99773 18816 ft 447 kts 355°
2026-05-06 07:09 36.57644 126.99667 18574 ft 447 kts 355°
2026-05-06 07:09 36.60778 126.99541 18460 ft 447 kts 354°
2026-05-06 07:09 36.63940 126.99412 18324 ft 448 kts 355°
2026-05-06 07:09 36.67086 126.99303 18192 ft 446 kts 355°
2026-05-06 07:10 36.70203 126.99032 18028 ft 442 kts 347°
2026-05-06 07:10 36.73202 126.98018 17907 ft 437 kts 334°
2026-05-06 07:10 36.75852 126.96253 17930 ft 433 kts 322°
2026-05-06 07:10 36.78190 126.93805 17946 ft 428 kts 313°
2026-05-06 07:11 36.80303 126.91103 17988 ft 428 kts 311°
2026-05-06 07:11 36.82367 126.88370 17894 ft 428 kts 311°
2026-05-06 07:11 36.84421 126.85674 17888 ft 429 kts 311°
2026-05-06 07:11 36.86543 126.82948 17886 ft 428 kts 312°
2026-05-06 07:12 36.88647 126.80296 17864 ft 427 kts 312°
2026-05-06 07:12 36.90760 126.77653 17881 ft 428 kts 312°
2026-05-06 07:12 36.92857 126.75010 17633 ft 428 kts 311°
2026-05-06 07:12 36.94946 126.72340 17361 ft 421 kts 311°
2026-05-06 07:13 36.97045 126.69668 17153 ft 422 kts 312°
2026-05-06 07:13 36.99134 126.67030 16869 ft 424 kts 312°
2026-05-06 07:13 37.01054 126.64214 16626 ft 421 kts 302°
2026-05-06 07:13 37.02491 126.61024 16442 ft 417 kts 291°
2026-05-06 07:14 37.03378 126.57546 16185 ft 412 kts 280°
2026-05-06 07:14 37.03796 126.54017 15963 ft 410 kts 276°
2026-05-06 07:14 37.04122 126.50442 15669 ft 409 kts 281°
2026-05-06 07:14 37.05210 126.47166 15418 ft 411 kts 302°
2026-05-06 07:15 37.07187 126.44543 15206 ft 420 kts 320°
2026-05-06 07:15 37.09668 126.42496 14902 ft 422 kts 327°
2026-05-06 07:15 37.12125 126.40826 14628 ft 419 kts 330°
2026-05-06 07:15 37.14646 126.39251 14361 ft 419 kts 331°
2026-05-06 07:16 37.17315 126.37663 14058 ft 419 kts 334°
2026-05-06 07:16 37.20108 126.36679 13731 ft 421 kts 350°
2026-05-06 07:16 37.23092 126.36752 13423 ft 429 kts
2026-05-06 07:16 37.25920 126.37972 13082 ft 431 kts 27°
2026-05-06 07:17 37.28379 126.40197 12757 ft 430 kts 40°
2026-05-06 07:17 37.30609 126.42808 12477 ft 429 kts 43°
2026-05-06 07:17 37.32724 126.45374 12075 ft 423 kts 43°
2026-05-06 07:17 37.34914 126.47992 11882 ft 421 kts 42°
2026-05-06 07:18 37.37002 126.50436 11843 ft 390 kts 41°
2026-05-06 07:18 37.38921 126.52632 11847 ft 354 kts 41°
2026-05-06 07:18 37.40697 126.54634 11866 ft 325 kts 39°
2026-05-06 07:18 37.42540 126.56084 11852 ft 292 kts 14°
2026-05-06 07:19 37.44453 126.56367 11921 ft 269 kts 347°
2026-05-06 07:19 37.46120 126.55482 11794 ft 257 kts 317°
2026-05-06 07:19 37.47369 126.53892 11577 ft 249 kts 307°
2026-05-06 07:19 37.48466 126.52193 11342 ft 246 kts 306°
2026-05-06 07:20 37.49546 126.50517 11142 ft 243 kts 306°
2026-05-06 07:20 37.50637 126.48898 10959 ft 242 kts 307°
2026-05-06 07:20 37.51765 126.47284 10794 ft 241 kts 308°
2026-05-06 07:20 37.52896 126.45715 10606 ft 242 kts 313°
2026-05-06 07:21 37.54314 126.44537 10431 ft 247 kts 336°
2026-05-06 07:21 37.56054 126.44268 10316 ft 256 kts
2026-05-06 07:21 37.57729 126.45139 10286 ft 264 kts 35°
2026-05-06 07:21 37.59109 126.46689 10158 ft 267 kts 48°
2026-05-06 07:22 37.60013 126.48695 10007 ft 263 kts 75°
2026-05-06 07:22 37.60110 126.50992 9990 ft 262 kts 105°
2026-05-06 07:22 37.59329 126.53050 10031 ft 257 kts 133°
2026-05-06 07:22 37.58123 126.54674 9980 ft 256 kts 139°
2026-05-06 07:23 37.56889 126.56167 9886 ft 252 kts 140°
2026-05-06 07:23 37.55627 126.57715 9881 ft 252 kts 138°
2026-05-06 07:23 37.54798 126.58788 9915 ft 254 kts 137°
2026-05-06 07:24 37.49786 126.66391 9903 ft 258 kts 108°
2026-05-06 07:24 37.49693 126.68544 9906 ft 266 kts 79°
2026-05-06 07:25 37.50516 126.70602 9669 ft 263 kts 45°
2026-05-06 07:25 37.51834 126.72100 9413 ft 262 kts 36°
2026-05-06 07:25 37.53439 126.73105 9106 ft 252 kts 11°
2026-05-06 07:25 37.55189 126.73139 8869 ft 247 kts 343°
2026-05-06 07:26 37.56680 126.72198 8494 ft 238 kts 315°
2026-05-06 07:26 37.57813 126.70670 8113 ft 232 kts 306°
2026-05-06 07:26 37.58821 126.69074 7747 ft 230 kts 306°
2026-05-06 07:26 37.59830 126.67494 7395 ft 229 kts 306°
2026-05-06 07:27 37.60857 126.65949 7068 ft 229 kts 307°
2026-05-06 07:27 37.61900 126.64436 6760 ft 227 kts 307°
2026-05-06 07:27 37.62847 126.62851 6462 ft 223 kts 299°
2026-05-06 07:27 37.63561 126.61101 6156 ft 221 kts 290°
2026-05-06 07:28 37.64129 126.59296 5850 ft 221 kts 288°
2026-05-06 07:28 37.64677 126.57468 5564 ft 220 kts 288°
2026-05-06 07:28 37.65793 126.53882 5059 ft 218 kts 289°
2026-05-06 07:29 37.66362 126.52107 4798 ft 217 kts 289°
2026-05-06 07:29 37.66890 126.50313 4535 ft 216 kts 285°
2026-05-06 07:29 37.67233 126.48486 4255 ft 211 kts 276°
2026-05-06 07:29 37.67427 126.46677 3993 ft 203 kts 274°
2026-05-06 07:30 37.67585 126.44954 3770 ft 190 kts 274°
2026-05-06 07:30 37.67743 126.43333 3508 ft 180 kts 274°
2026-05-06 07:30 37.67870 126.41833 3292 ft 163 kts 266°
2026-05-06 07:30 37.67686 126.40483 3162 ft 150 kts 245°
2026-05-06 07:31 37.67188 126.39275 3230 ft 158 kts 239°
2026-05-06 07:31 37.66637 126.38084 3218 ft 156 kts 239°
2026-05-06 07:31 37.66087 126.36913 3143 ft 154 kts 239°
2026-05-06 07:31 37.65532 126.35729 3118 ft 156 kts 239°
2026-05-06 07:32 37.64981 126.34546 3096 ft 155 kts 239°
2026-05-06 07:32 37.64439 126.33375 3040 ft 154 kts 239°
2026-05-06 07:32 37.63791 126.32289 2977 ft 154 kts 213°
2026-05-06 07:32 37.62729 126.32034 3077 ft 166 kts 179°
2026-05-06 07:33 37.61601 126.32439 3008 ft 168 kts 160°
2026-05-06 07:33 37.60584 126.33179 2847 ft 170 kts 152°
2026-05-06 07:33 37.59619 126.34025 2640 ft 170 kts 150°
2026-05-06 07:33 37.58642 126.34907 2422 ft 169 kts 150°
2026-05-06 07:34 37.57701 126.35744 2202 ft 162 kts 150°
2026-05-06 07:34 37.56789 126.36549 2000 ft 157 kts 151°
2026-05-06 07:34 37.55888 126.37339 1797 ft 157 kts 151°
2026-05-06 07:34 37.55000 126.38123 1592 ft 158 kts 151°
2026-05-06 07:35 37.54109 126.38902 1381 ft 154 kts 152°
2026-05-06 07:35 37.53218 126.39674 1178 ft 154 kts 152°
2026-05-06 07:35 37.52327 126.40460 972 ft 154 kts 151°
2026-05-06 07:35 37.51448 126.41251 780 ft 156 kts 150°
2026-05-06 07:36 37.50581 126.42048 572 ft 152 kts 149°
2026-05-06 07:36 37.49720 126.42825 385 ft 150 kts 148°
2026-05-06 07:36 37.48891 126.43592 159 ft 143 kts 147°
2026-05-06 07:36 37.48033 126.44344 47 ft 149 kts 148°
2026-05-06 07:37 37.47257 126.45052 35 ft 135 kts 150°
2026-05-06 07:37 37.46672 126.45551 34 ft 41 kts 146°
2026-05-06 07:37 37.46484 126.45709 34 ft 28 kts 142°
2026-05-06 07:37 37.46381 126.45863 34 ft 20 kts 119°
2026-05-06 07:38 37.46332 126.45988 34 ft 11 kts 112°
2026-05-06 07:38 37.46319 126.46071 34 ft 6 kts 67°
2026-05-06 07:38 37.46347 126.46107 34 ft 4 kts 11°
2026-05-06 07:38 37.46381 126.46110 34 ft 6 kts
2026-05-06 07:39 37.46423 126.46119 34 ft 3 kts 30°
2026-05-06 07:39 37.46434 126.46135 34 ft 3 kts 58°
2026-05-06 07:39 37.46455 126.46177 34 ft 7 kts 56°
2026-05-06 07:39 37.46487 126.46217 34 ft 2 kts
2026-05-06 07:40 37.46509 126.46209 34 ft 4 kts 333°
2026-05-06 07:40 37.46535 126.46191 34 ft 2 kts 325°
2026-05-06 07:40 37.46541 126.46186 34 ft 0 kts 327°